sat.trackr.live / text

‹ back to catalog

STARLINK-36996

NORAD 68064 · 2026-041AA

PAYLOAD ACTIVE UNKNOWN

§ Identity

Operator
Country
US
Launch date
2026-03-02
Launch site
AFETR
Launch vehicle
Mass (kg)
RCS (m²)

Purposes: comms

External: N2YO · Heavens-Above · Gunter

§ Orbital elements

Epoch: 2026-05-25T03:33:25.123680Z

Period
93.85 min
Inclination
53.1606°
Eccentricity
0.0001177
Mean motion
15.34421238 rev/d
Perigee alt
461.8 km
Apogee alt
463.4 km
Semi-major
6,840.8 km
B*
2.9894e-4
RAAN
52.6540°
Arg perigee
96.7094°
Mean anomaly
263.4042°
Rev number
1,312

§ Raw data

STARLINK-369961 68064U 26041AA  26145.14820745  .00009744  00000+0  29894-3 0  99942 68064  53.1606  52.6540 0001177  96.7094 263.4042 15.34421238 13121

JSON: /api/v1/satellites/68064 · /tle

For live sub-satellite position, see the globe view (requires WebGL).

§ Visibility from observer

Set your observer location to see the next 7 days of passes ≥ 10°. The values pass through the URL so the page stays shareable.

No JS? Fill the form by hand. The geolocation button needs JavaScript.